Location: Celina Division
(33.3022°N, 96.7580°W)
Time: 05:57:30
(UTC+00:00)

H-2A R/B (2) - Pass Details

Date: 05 July 2022
Orbit: 426 x 34397 km, 28.9° (Epoch: 11 August)

Event Time Altitude Azimuth Distance (km) Brightness Sun altitude
Exits shadow 09:41:37 - 208° (SSW) 20,176 8.6 -18.0°
Reaches altitude 10° 09:57:29 10° 205° (SSW) 22,662 8.9 -15.5°
Maximum altitude 18:22:04 76° 182° (S) 2,833 8.1 79.2°
Drops below altitude 10° 18:29:39 10° 98° (E) 3,165 5.4 79.4°
Sets 18:31:08 0° 96° (E) 3,689 5.5 79.4°
